[[{"header":{"parameterUnit":"m.s-1","parameterCategory":1,"la1":30.2991,"la2":30.254,"lo1":-89.0895,"lo2":-89.0444,"dy":0.0017,"dx":0.0017,"nx":28,"ny":28,"refTime":"2025-04-11T03:00:00:Z","depth":0,"parameterNumber":2,"parameterNumberName":"U-component_of_WINDS"},"data":[0,0,0,0,0,0,0,0,0,0,0,0,0,0,0,0,0,0,0,0,0,0,0,0,0,0,0,0,0,0,0,0,0,0,0,0,0,0,0,0,0,0,0,0,0,0,0,0,0,0,0,0,0,0,0,0,0,0,-1.0824,-1.0824,0,-1.0845,-1.0845,-1.0845,-1.082,-1.0819,-1.0818,-1.0817,-1.0839,-1.0841,-1.0842,0,0,0,0,0,0,0,0,0,0,0,0,0,-1.0763,-1.0764,-1.0824,-1.0824,-1.0824,-1.0845,-1.0845,-1.0845,-1.082,-1.0819,-1.0818,-1.0817,-1.0839,-1.0841,-1.0842,0,0,0,0,0,0,0,0,0,0,0,0,0,-1.0787,-1.0765,-1.0824,-1.0814,-1.0814,-1.0845,-1.0845,-1.0845,-1.082,-1.0819,-1.0817,-1.0816,-1.0838,-1.084,-1.0843,-1.0884,0,0,-1.0849,-1.085,0,0,0,0,0,0,0,0,-1.0786,-1.079,-1.0815,-1.0815,-1.0814,-1.0828,-1.0832,-1.0858,-1.082,-1.0818,-1.0817,-1.0815,-1.0837,-1.0839,-1.0846,-1.0886,-1.0886,-1.085,-1.0851,-1.0852,-1.0852,0,0,0,0,0,0,0,-1.0784,-1.0789,-1.0832,-1.0816,-1.0815,-1.0809,-1.0811,-1.0837,-1.0835,-1.0818,-1.0816,-1.0819,-1.0836,-1.0844,-1.0846,-1.0887,-1.0849,-1.0851,-1.0853,-1.0854,-1.0962,-1.0963,0,0,0,0,0,0,-1.0784,-1.0787,-1.0831,-1.0833,-1.0796,-1.0811,-1.0813,-1.0825,-1.0835,-1.0835,-1.082,-1.0817,-1.0841,-1.0844,-1.0847,-1.0897,-1.0852,-1.0854,-1.0855,-1.096,-1.0962,-1.0964,0,0,0,0,0,0,-1.0782,-1.0788,-1.0831,-1.081,-1.0815,-1.0814,-1.0827,-1.0826,-1.0834,-1.0836,-1.0836,-1.0828,-1.084,-1.0844,-1.0875,-1.0898,-1.0855,-1.0857,-1.0959,-1.0961,-1.0963,-1.0997,0,0,0,0,0,0,-1.0781,-1.0788,-1.0803,-1.081,-1.0816,-1.0858,-1.0829,-1.0828,-1.0838,-1.0835,-1.0844,-1.0844,-1.0839,-1.0872,-1.0878,-1.09,-1.0859,-1.0957,-1.096,-1.0962,-1.0994,-1.1001,-1.1006,0,0,0,0,0,-1.0779,-1.0812,-1.0804,-1.081,-1.0835,-1.086,-1.0863,-1.0857,-1.084,-1.0856,-1.0857,-1.0844,-1.0894,-1.0876,-1.0881,-1.0905,-1.0955,-1.0959,-1.0962,-1.0992,-1.0999,-1.1006,0,0,0,0,0,0,-1.0809,-1.0813,-1.0804,-1.0841,-1.085,-1.0855,-1.0875,-1.0865,-1.0879,-1.0876,-1.0867,-1.087,-1.0903,-1.0907,-1.0886,-1.0946,-1.0922,-1.0927,-1.0942,-1.095,-1.0955,-1.0954,-1.086,0,0,0,0,0,-1.0819,-1.0838,-1.0841,-1.0874,-1.0879,-1.0876,-1.0887,-1.0881,-1.089,-1.0894,-1.0898,-1.0908,-1.0926,-1.0938,-1.0954,-1.0994,-1.0996,-1.1013,-1.1019,-1.1024,-1.1029,-1.105,-1.1058,-1.0975,-1.0975,-1.0975,0,0,-1.0842,-1.0847,-1.0859,-1.088,-1.0886,-1.0906,-1.088,-1.0902,-1.0918,-1.0897,-1.0927,-1.093,-1.0941,-1.0977,-1.0993,-1.0981,-1.1052,-1.1028,-1.1032,-1.1034,-1.1055,-1.1063,-1.107,-1.0978,-1.0977,-1.0977,0,0,-1.0894,-1.0899,-1.0927,-1.0933,-1.0943,-1.0942,-1.0948,-1.0955,-1.0956,-1.0986,-1.0972,-1.0989,-1.1021,-1.1029,-1.1037,-1.1092,-1.108,-1.1097,-1.1128,-1.115,-1.1156,-1.1162,-1.1182,-1.119,-1.1102,-1.1102,-1.1102,0,-1.0921,-1.0951,-1.0942,-1.0966,-1.0975,-1.0958,-1.0986,-1.0993,-1.1008,-1.1015,-1.1001,-1.104,-1.1046,-1.1084,-1.1097,-1.1104,-1.1112,-1.1097,-1.1156,-1.1162,-1.1167,-1.1186,-1.1194,-1.1104,-1.1104,-1.1103,-1.1103,0,-1.0984,-1.1005,-1.1026,-1.104,-1.1052,-1.1078,-1.1074,-1.1087,-1.108,-1.1079,-1.111,-1.1116,-1.1134,-1.1142,-1.1136,-1.118,-1.1172,-1.1157,-1.1133,-1.1177,-1.1195,-1.1202,-1.1107,-1.1106,-1.1105,-1.1105,0,0,-1.1055,-1.1065,-1.1073,-1.108,-1.1089,-1.1105,-1.113,-1.1147,-1.1159,-1.117,-1.1191,-1.1218,-1.1204,-1.1213,-1.1208,-1.1226,-1.127,-1.1209,-1.1209,-1.1221,-1.1319,-1.1331,-1.1339,-1.1262,-1.1263,-1.1264,-1.1318,0,-1.1108,-1.1151,-1.1144,-1.1186,-1.1206,-1.1189,-1.1211,-1.1219,-1.1219,-1.1236,-1.1236,-1.1256,-1.1236,-1.1242,-1.1259,-1.1261,-1.129,-1.1257,-1.1282,-1.1283,-1.1281,-1.1348,-1.1361,-1.1412,-1.1325,-1.1326,-1.1327,0,-1.1175,-1.1188,-1.1232,-1.1239,-1.1246,-1.1266,-1.1281,-1.1297,-1.1307,-1.1306,-1.1316,-1.1307,-1.1332,-1.1307,-1.1342,-1.132,-1.133,-1.1332,-1.1334,-1.1337,-1.1309,-1.1354,-1.1428,-1.1436,-1.1338,-1.1337,-1.1336,0,-1.1224,-1.1252,-1.1282,-1.1288,-1.1297,-1.1311,-1.1315,-1.1323,-1.1334,-1.1347,-1.1354,-1.137,-1.1379,-1.1392,-1.1388,-1.137,-1.1424,-1.1398,-1.1424,-1.1425,-1.1437,-1.1437,-1.1514,-1.1442,-1.1442,-1.1442,-1.1442,0,-1.1284,-1.1311,-1.1305,-1.1323,-1.1354,-1.1345,-1.1376,-1.1378,-1.1385,-1.1404,-1.139,-1.1409,-1.1401,-1.1419,-1.1415,-1.1445,-1.1449,-1.1449,-1.1448,-1.1451,-1.1451,-1.1458,-1.1455,-1.1444,-1.1444,-1.1443,-1.1443,0,-1.1344,-1.134,-1.1372,-1.1377,-1.1379,-1.1402,-1.1406,-1.1424,-1.1423,-1.1447,-1.1452,-1.1451,-1.1471,-1.1467,-1.149,-1.1487,-1.1525,-1.1519,-1.1522,-1.1521,-1.1547,-1.1545,-1.1633,-1.1645,-1.1564,-1.1565,-1.1566,0,-1.1382,-1.1403,-1.1411,-1.1422,-1.1427,-1.1446,-1.1457,-1.145,-1.1462,-1.1474,-1.149,-1.1509,-1.1523,-1.1557,-1.1558,-1.1575,-1.157,-1.1599,-1.1572,-1.1575,-1.1571,-1.157,-1.1573,-1.1605,-1.1606,-1.1607,-1.1607,0,-1.1452,-1.1449,-1.1465,-1.1481,-1.1494,-1.1506,-1.1517,-1.1527,-1.152,-1.1534,-1.1555,-1.1566,-1.1589,-1.1608,-1.1624,-1.1628,-1.1617,-1.1616,-1.1623,-1.1626,-1.1627,-1.1628,-1.1537,-1.1614,-1.1613,-1.1613,-1.1612,-1.1612,-1.1503,-1.1521,-1.1529,-1.1547,-1.1554,-1.1565,-1.1582,-1.1583,-1.1599,-1.1617,-1.1612,-1.1635,-1.1644,-1.1664,-1.167,-1.1688,-1.1677,-1.1688,-1.169,-1.1693,-1.1697,-1.1624,-1.1691,-1.1691,-1.1691,-1.1691,-1.169,0,-1.1572,-1.1577,-1.1594,-1.1609,-1.1623,-1.1611,-1.1622,-1.1635,-1.1656,-1.1665,-1.1679,-1.1703,-1.1721,-1.1724,-1.1741,-1.1755,-1.1751,-1.176,-1.176,-1.1761,-1.1705,-1.1698,-1.1764,-1.1764,-1.1764,-1.1764,-1.1764,-1.1764,-1.161,-1.164,-1.1638,-1.1672,-1.1676,-1.1698,-1.1706,-1.1715,-1.1722,-1.1749,-1.1764,-1.1766,-1.1772,-1.179,-1.1806,-1.1807,-1.1814,-1.1826,-1.1825,-1.1772,-1.1765,-1.1758,-1.1751,-1.1828,-1.1828,-1.1879,-1.188,-1.188]},{"header":{"parameterUnit":"m.s-1","parameterCategory":1,"la1":30.2991,"la2":30.254,"lo1":-89.0895,"lo2":-89.0444,"dy":0.0017,"dx":0.0017,"nx":28,"ny":28,"refTime":"2025-04-11T03:00:00:Z","depth":0,"parameterNumber":3,"parameterNumberName":"V-component_of_WINDS"},"data":[0,0,0,0,0,0,0,0,0,0,0,0,0,0,0,0,0,0,0,0,0,0,0,0,0,0,0,0,0,0,0,0,0,0,0,0,0,0,0,0,0,0,0,0,0,0,0,0,0,0,0,0,0,0,0,0,0,0,-3.4299,-3.43,0,-3.4318,-3.4318,-3.4318,-3.4283,-3.4282,-3.4281,-3.428,-3.4297,-3.4298,-3.43,0,0,0,0,0,0,0,0,0,0,0,0,0,-3.4231,-3.4233,-3.4299,-3.43,-3.43,-3.4318,-3.4318,-3.4318,-3.4284,-3.4282,-3.4281,-3.4279,-3.4296,-3.4298,-3.43,0,0,0,0,0,0,0,0,0,0,0,0,0,-3.4256,-3.4233,-3.4299,-3.4285,-3.4284,-3.4318,-3.4318,-3.4318,-3.4284,-3.4282,-3.428,-3.4279,-3.4296,-3.4298,-3.43,-3.4349,0,0,-3.4307,-3.4308,0,0,0,0,0,0,0,0,-3.4255,-3.4259,-3.4287,-3.4286,-3.4285,-3.4297,-3.43,-3.4329,-3.4284,-3.4284,-3.428,-3.4278,-3.4298,-3.43,-3.4307,-3.4349,-3.435,-3.4307,-3.4309,-3.431,-3.431,0,0,0,0,0,0,0,-3.4253,-3.4258,-3.4307,-3.4287,-3.4286,-3.4276,-3.4278,-3.4305,-3.43,-3.4284,-3.4281,-3.4284,-3.4297,-3.4305,-3.4307,-3.435,-3.4307,-3.4309,-3.4311,-3.4311,-3.4435,-3.4436,0,0,0,0,0,0,-3.4254,-3.4257,-3.4306,-3.4307,-3.4265,-3.4279,-3.4281,-3.4294,-3.43,-3.4299,-3.4285,-3.4282,-3.4302,-3.4305,-3.4308,-3.4366,-3.431,-3.4312,-3.4313,-3.4433,-3.4435,-3.4437,0,0,0,0,0,0,-3.4253,-3.4259,-3.4305,-3.4281,-3.4287,-3.4282,-3.4298,-3.4296,-3.4304,-3.4301,-3.43,-3.4295,-3.4301,-3.4304,-3.4339,-3.4366,-3.4313,-3.4315,-3.4431,-3.4433,-3.4436,-3.4483,0,0,0,0,0,0,-3.4251,-3.4258,-3.4277,-3.4282,-3.4288,-3.4337,-3.4299,-3.4297,-3.4308,-3.4304,-3.431,-3.4309,-3.43,-3.4336,-3.4341,-3.4368,-3.4317,-3.4428,-3.4432,-3.4435,-3.4479,-3.4487,-3.4494,0,0,0,0,0,-3.4248,-3.4289,-3.4278,-3.4285,-3.4312,-3.4339,-3.4342,-3.4331,-3.431,-3.4329,-3.4328,-3.4309,-3.4362,-3.434,-3.4346,-3.4374,-3.4426,-3.4431,-3.4435,-3.4475,-3.4485,-3.4493,0,0,0,0,0,0,-3.4286,-3.4289,-3.4278,-3.4321,-3.433,-3.4333,-3.4356,-3.4342,-3.4357,-3.4352,-3.4337,-3.4339,-3.4377,-3.4378,-3.4353,-3.4421,-3.4391,-3.4396,-3.4419,-3.4429,-3.4436,-3.4435,-3.4318,0,0,0,0,0,-3.43,-3.4322,-3.4323,-3.4361,-3.4367,-3.4361,-3.4372,-3.4363,-3.4372,-3.4375,-3.4376,-3.4384,-3.4403,-3.4416,-3.4433,-3.4478,-3.4479,-3.45,-3.4508,-3.4514,-3.4519,-3.4545,-3.4554,-3.4451,-3.4451,-3.4451,0,0,-3.4327,-3.4332,-3.4347,-3.4369,-3.4375,-3.4398,-3.4364,-3.439,-3.4407,-3.4379,-3.4412,-3.4413,-3.4421,-3.4462,-3.448,-3.4465,-3.4548,-3.452,-3.4524,-3.4526,-3.455,-3.456,-3.4569,-3.4454,-3.4454,-3.4453,0,0,-3.4391,-3.4396,-3.4429,-3.4436,-3.4446,-3.4442,-3.445,-3.4455,-3.4455,-3.4489,-3.4468,-3.4488,-3.452,-3.4527,-3.4535,-3.4602,-3.4585,-3.4607,-3.4647,-3.4671,-3.468,-3.4687,-3.4712,-3.4721,-3.4612,-3.4612,-3.4613,0,-3.4424,-3.4459,-3.4447,-3.4475,-3.4486,-3.4462,-3.4495,-3.4502,-3.4517,-3.4525,-3.4507,-3.4548,-3.4552,-3.4594,-3.4611,-3.4617,-3.4626,-3.4607,-3.4679,-3.4687,-3.4693,-3.4717,-3.4726,-3.4615,-3.4615,-3.4615,-3.4614,0,-3.45,-3.4525,-3.455,-3.4566,-3.4579,-3.461,-3.4602,-3.4617,-3.4607,-3.4604,-3.4639,-3.4643,-3.4661,-3.467,-3.466,-3.4711,-3.4702,-3.4682,-3.4651,-3.4706,-3.4728,-3.4737,-3.4619,-3.4618,-3.4617,-3.4617,0,0,-3.4588,-3.4598,-3.4607,-3.4615,-3.4625,-3.4643,-3.4672,-3.4691,-3.4704,-3.4714,-3.4739,-3.4767,-3.4749,-3.4758,-3.4749,-3.477,-3.4824,-3.4748,-3.4748,-3.4763,-3.4883,-3.4898,-3.4909,-3.4813,-3.4814,-3.4816,-3.4882,0,-3.4651,-3.4703,-3.4694,-3.4744,-3.4767,-3.4745,-3.477,-3.4779,-3.4777,-3.4796,-3.4794,-3.4815,-3.4789,-3.4794,-3.4815,-3.4813,-3.4848,-3.4808,-3.4836,-3.4837,-3.4836,-3.492,-3.4937,-3.4999,-3.4891,-3.4892,-3.4893,0,-3.4733,-3.4748,-3.4801,-3.4808,-3.4817,-3.4841,-3.4857,-3.4875,-3.4884,-3.4882,-3.4892,-3.4879,-3.4907,-3.4875,-3.4915,-3.4888,-3.4898,-3.4899,-3.4901,-3.4904,-3.4869,-3.4927,-3.5019,-3.5029,-3.4906,-3.4905,-3.4904,0,-3.4793,-3.4827,-3.4863,-3.487,-3.4879,-3.4896,-3.49,-3.4907,-3.4919,-3.4933,-3.4941,-3.4958,-3.4967,-3.498,-3.4972,-3.4949,-3.5013,-3.498,-3.5012,-3.5012,-3.5027,-3.5027,-3.5124,-3.5032,-3.5032,-3.5032,-3.5031,0,-3.4866,-3.49,-3.4891,-3.4913,-3.495,-3.4939,-3.4975,-3.4976,-3.4983,-3.5005,-3.4986,-3.5007,-3.4994,-3.5013,-3.5006,-3.5041,-3.5045,-3.5044,-3.5042,-3.5046,-3.5047,-3.5054,-3.5049,-3.5034,-3.5034,-3.5033,-3.5033,0,-3.494,-3.4936,-3.4974,-3.4979,-3.4982,-3.5009,-3.5013,-3.5034,-3.5031,-3.5059,-3.5065,-3.506,-3.5083,-3.5075,-3.5098,-3.5094,-3.5138,-3.5129,-3.5136,-3.5134,-3.5167,-3.5164,-3.5273,-3.5287,-3.5185,-3.5186,-3.5187,0,-3.4988,-3.5013,-3.5022,-3.5036,-3.5042,-3.5064,-3.5077,-3.5066,-3.508,-3.5093,-3.5112,-3.5133,-3.5149,-3.5186,-3.5184,-3.5202,-3.5195,-3.5231,-3.5197,-3.5201,-3.5197,-3.5196,-3.5199,-3.5239,-3.524,-3.5241,-3.5242,0,-3.5073,-3.507,-3.5089,-3.5108,-3.5124,-3.5138,-3.5151,-3.5163,-3.5153,-3.5169,-3.5193,-3.5205,-3.523,-3.5251,-3.5267,-3.5271,-3.5255,-3.5252,-3.5261,-3.5266,-3.5269,-3.527,-3.5156,-3.525,-3.5249,-3.5249,-3.5248,-3.5248,-3.5136,-3.5158,-3.5168,-3.5191,-3.5199,-3.5211,-3.5232,-3.5232,-3.5252,-3.5272,-3.5264,-3.5291,-3.5299,-3.532,-3.5325,-3.5346,-3.5332,-3.5344,-3.5347,-3.535,-3.5355,-3.5265,-3.5348,-3.5348,-3.5348,-3.5348,-3.5348,0,-3.5221,-3.5227,-3.5248,-3.5267,-3.5284,-3.5269,-3.5281,-3.5297,-3.5322,-3.5331,-3.5348,-3.5375,-3.5395,-3.5396,-3.5415,-3.5431,-3.5424,-3.5437,-3.5436,-3.5437,-3.5366,-3.5358,-3.5442,-3.5442,-3.5442,-3.5442,-3.5442,-3.5442,-3.5268,-3.5305,-3.5303,-3.5345,-3.5349,-3.5377,-3.5386,-3.5397,-3.5405,-3.5436,-3.5454,-3.5454,-3.546,-3.5479,-3.5497,-3.5497,-3.5505,-3.552,-3.5517,-3.5451,-3.5442,-3.5433,-3.5425,-3.5522,-3.5522,-3.5586,-3.5587,-3.5587]}]]